Wind_Speed
55 54 54 56 56 53 49 49 49 48 48 48 47 46 45 46 45 42 39 38 36 34 35 33 32 35 35 32 31 30 32 35 36 35 35 34 32 30 29 28 29 30 32 30 27 26 27 29 30 30 30 30 31 31 30 30 31 30 31 31 30 31 32 33 34 35 37 38 39 40 40 40 42 43 44 44 44 44 44 44 44 45 45 45 45 46
55 55 57 59 55 51 50 51 51 50 50 49 48 48 47 48 48 44 41 41 38 36 37 34 32 35 37 35 35 33 33 36 36 36 37 37 35 34 32 31 31 31 32 32 30 27 27 29 30 31 32 32 32 32 33 33 33 32 32 32 32 32 33 33 35 36 37 38 38 39 40 41 42 44 45 45 46 46 46 46 46 47 49 49 48 49
56 57 60 58 54 52 53 53 53 52 52 51 50 49 50 50 50 46 44 43 41 38 38 36 32 35 38 38 39 38 34 37 38 37 39 38 37 36 35 34 33 32 32 32 32 31 30 29 30 32 33 33 33 33 34 34 34 34 34 34 34 34 34 35 35 36 38 38 38 39 41 41 42 43 45 46 46 47 47 48 48 49 51 52 51 52
57 59 60 58 56 55 55 55 55 54 53 53 52 51 52 53 51 49 47 46 43 41 40 39 33 34 39 40 43 42 37 39 40 40 41 39 37 38 37 36 34 33 32 31 31 32 32 32 31 31 33 34 34 34 34 34 34 35 35 35 36 36 36 36 37 37 38 39 40 40 41 42 43 43 44 46 47 47 48 48 49 50 52 54 54 54
59 60 60 59 58 57 57 57 57 56 55 55 54 54 55 55 53 51 51 49 46 43 43 41 34 33 40 43 46 45 40 42 44 42 43 41 39 39 39 38 36 34 32 31 31 31 32 33 33 32 33 34 35 36 36 36 35 35 36 35 36 37 37 37 38 39 39 40 41 42 42 43 44 45 45 45 46 47 49 50 50 51 52 54 54 55
60 61 61 62 61 60 60 59 58 58 57 57 56 56 56 56 55 54 54 52 49 47 46 44 36 33 40 46 48 46 43 45 47 44 44 45 43 41 40 39 36 34 33 32 32 32 32 33 33 33 34 34 35 36 37 37 37 37 36 36 36 37 38 38 39 39 39 41 42 43 44 44 45 46 46 46 46 48 49 51 52 53 53 54 55 56
61 63 63 64 63 62 61 60 61 61 60 58 58 58 59 58 58 56 56 55 53 50 48 45 40 35 38 46 49 47 45 48 49 48 46 48 47 45 43 40 37 35 33 33 34 34 34 34 34 34 35 36 37 37 37 37 38 38 38 38 38 39 39 40 39 39 40 41 43 44 45 46 46 46 47 48 48 49 50 52 53 54 55 56 57 58
63 65 66 66 65 63 61 62 64 63 61 59 59 61 61 60 60 59 59 58 56 54 49 46 46 41 36 42 49 47 47 49 51 51 50 50 51 49 47 43 39 36 33 33 35 36 36 36 36 37 37 38 38 38 38 39 39 39 40 40 40 40 41 41 41 41 41 42 43 44 46 47 47 47 47 48 50 51 52 53 54 55 56 57 57 59
66 67 67 67 66 64 62 64 65 64 62 61 62 63 62 62 62 62 62 61 60 57 49 46 52 49 37 37 45 46 48 51 52 53 53 53 53 51 50 47 43 39 36 34 35 36 37 38 38 39 40 40 40 40 41 40 40 40 41 41 41 41 42 42 42 42 43 43 44 46 47 48 49 49 49 49 51 52 53 54 55 56 57 58 59 60
67 67 68 67 66 65 65 67 67 66 65 63 63 64 65 65 65 66 65 64 64 58 47 47 56 56 41 35 42 44 46 50 51 54 56 54 54 53 52 50 46 43 40 38 38 39 39 40 40 41 42 42 42 42 42 42 42 41 41 42 42 42 42 42 43 42 43 44 45 46 47 48 50 51 51 51 52 53 54 55 56 57 58 59 59 60
68 68 69 68 67 67 67 68 68 68 66 65 65 65 67 69 69 70 68 67 66 57 49 51 58 60 46 35 41 44 43 46 48 53 56 54 53 54 54 53 50 47 43 40 40 41 42 42 42 43 43 43 43 42 42 42 42 42 42 42 43 43 43 43 43 42 42 43 45 46 46 47 48 50 50 51 52 53 54 55 56 57 58 59 60 60
70 70 70 69 69 70 70 70 69 69 68 67 67 68 71 73 73 73 70 69 66 58 55 56 59 60 48 36 42 46 45 47 48 52 56 53 52 55 55 54 53 50 45 43 42 42 43 44 45 45 45 44 44 43 43 43 42 42 42 42 43 44 44 44 44 44 44 44 45 46 46 47 47 49 50 51 52 52 53 54 55 56 57 58 59 60
74 73 73 73 73 72 71 71 70 70 71 71 73 74 76 77 76 74 70 69 68 63 61 60 60 58 47 40 45 48 48 51 51 53 56 53 51 54 56 56 55 52 48 46 44 43 43 45 46 46 46 46 45 44 43 43 42 42 42 43 43 44 44 44 45 45 46 46 46 47 48 48 49 50 51 51 52 53 53 54 55 56 57 58 59 60
77 75 75 74 73 73 73 73 73 74 76 77 78 78 78 78 76 73 71 72 70 68 66 64 61 54 46 45 48 49 51 52 50 52 55 52 50 51 53 56 56 53 49 48 47 46 46 46 48 47 47 46 45 44 44 43 43 43 43 44 44 44 45 45 46 46 47 47 48 48 49 50 50 51 52 53 53 54 54 55 56 57 58 59 60 61
79 77 75 75 75 76 76 77 78 79 81 81 80 81 79 78 77 75 75 75 73 71 70 66 61 53 48 49 50 50 52 52 51 52 54 53 51 51 50 52 55 54 50 49 49 48 48 48 49 48 47 47 46 45 45 45 45 45 45 45 45 45 45 45 46 46 47 47 48 49 50 50 51 51 52 53 54 55 55 56 57 59 60 61 62 63
81 79 77 79 80 79 80 81 83 84 84 84 83 82 79 77 79 80 79 77 75 75 72 68 63 56 52 53 51 51 52 52 53 54 55 56 56 55 52 48 52 53 51 50 49 49 49 49 49 49 48 47 47 47 47 47 47 46 46 46 46 46 46 46 46 46 46 47 48 49 50 51 51 52 53 54 55 56 56 57 58 60 61 61 62 63
85 82 81 83 83 83 84 85 85 86 86 85 84 81 80 80 82 83 82 79 79 77 73 69 65 59 56 54 51 52 53 53 55 55 57 58 57 59 58 51 48 50 50 50 49 48 49 50 49 49 49 48 47 47 48 48 48 47 47 47 46 47 47 47 47 47 47 47 48 49 50 51 52 53 54 55 55 56 56 57 58 59 60 61 62 63
88 87 85 85 86 86 87 87 87 88 87 86 83 81 82 83 83 84 84 82 81 80 76 71 66 61 58 54 51 52 55 55 56 57 58 59 57 59 61 55 48 48 50 49 48 48 48 49 50 49 49 49 49 49 49 48 48 47 47 47 47 47 47 47 47 47 47 48 50 51 52 53 54 55 56 56 56 57 57 58 59 60 61 61 63 64
91 90 88 88 88 88 89 90 89 88 87 86 84 84 85 86 85 85 86 85 84 83 80 73 68 63 57 54 53 55 56 57 58 59 58 58 57 59 60 58 52 51 51 49 47 47 47 48 48 49 49 50 50 50 50 49 48 48 47 47 47 47 48 48 48 48 50 52 54 55 56 56 57 58 58 58 58 59 59 60 61 62 63 64 65 66
94 94 92 90 90 91 91 90 88 86 86 87 87 87 87 87 87 87 87 86 84 84 82 77 73 65 56 55 57 56 57 58 60 61 60 58 58 59 60 60 57 55 54 51 48 47 47 47 47 47 49 50 51 51 50 50 49 49 48 48 48 49 49 50 50 52 54 55 56 57 58 59 59 60 60 61 61 62 63 64 65 66 67 67 68 69
97 97 95 92 92 92 91 89 88 88 90 91 91 90 89 88 88 87 86 85 83 84 84 83 80 69 58 56 58 58 58 60 63 63 61 59 58 59 60 61 59 57 56 54 50 48 46 46 47 47 47 49 50 51 51 51 50 50 50 50 51 51 52 53 54 55 56 57 58 59 59 60 61 61 62 62 63 64 65 66 67 68 68 69 69 70
99 99 98 97 95 94 92 91 91 92 93 93 93 91 89 88 88 87 86 84 83 86 87 88 86 74 60 58 60 61 62 63 64 64 62 60 58 57 59 60 59 57 58 58 55 52 50 49 49 48 48 48 49 50 51 52 51 51 52 53 54 54 54 55 56 57 58 59 60 61 61 62 63 63 64 64 65 66 67 68 69 69 69 70 70 71
102 102 102 100 97 95 94 94 94 94 94 94 93 91 88 87 87 87 88 86 87 90 90 92 90 75 62 60 61 63 64 64 65 64 63 63 60 57 58 60 60 58 59 62 61 58 55 53 52 51 50 50 50 51 53 53 53 53 54 56 56 56 57 58 58 59 60 61 62 63 63 64 65 66 66 67 68 68 70 70 71 71 71 72 72 72
104 105 104 102 100 99 98 97 97 96 96 95 92 89 89 89 89 91 93 92 93 94 92 94 90 75 64 64 63 63 65 66 67 67 65 65 63 61 59 58 60 61 61 64 66 64 59 55 54 54 53 52 53 53 54 54 55 56 56 57 58 59 59 60 61 61 62 63 64 65 65 66 67 68 69 70 71 72 72 73 73 73 74 74 75 75
107 108 107 106 105 103 102 100 98 96 95 93 92 91 92 93 95 97 97 98 99 97 94 94 89 75 67 68 66 65 67 69 70 70 68 66 65 64 61 59 59 62 64 66 67 67 63 59 57 57 55 55 55 56 55 55 56 57 58 59 60 61 62 62 63 64 65 66 67 68 68 68 69 70 71 72 73 74 74 74 74 75 76 76 77 76
110 111 110 110 109 106 103 100 97 95 96 97 96 96 97 97 99 100 101 103 102 97 93 93 89 78 71 71 70 69 70 70 72 71 69 67 66 64 62 62 60 62 67 69 68 68 66 64 62 60 59 59 59 59 58 57 57 58 60 61 62 63 64 65 66 67 68 69 69 70 70 70 71 72 73 74 75 76 76 75 76 77 78 78 77 77
111 112 112 112 110 107 103 100 98 99 101 102 100 99 99 100 101 103 105 105 101 97 95 93 88 80 74 72 72 71 71 71 71 71 70 69 68 65 63 63 63 64 68 70 70 69 67 66 65 64 63 63 62 61 60 60 60 61 62 64 64 65 67 68 69 70 71 71 71 72 72 72 73 74 76 76 77 76 76 76 78 79 80 79 77 77
112 112 112 112 111 108 105 102 102 104 104 103 102 101 101 102 104 105 106 104 100 99 97 90 86 84 78 74 74 73 72 72 71 71 71 71 72 71 68 67 67 68 70 70 71 71 68 67 67 67 67 66 65 64 63 63 64 64 65 67 67 68 69 70 71 72 73 73 74 74 74 74 75 76 77 77 77 76 76 78 80 81 80 78 77 77
112 112 112 112 111 110 107 106 106 106 106 105 104 104 104 105 106 107 106 102 99 100 97 89 87 88 82 75 75 75 75 75 74 73 73 75 76 76 73 71 70 70 71 70 70 69 68 68 69 69 69 68 67 66 66 66 67 67 68 70 70 71 72 72 73 74 75 75 76 76 76 75 76 77 77 77 76 77 78 81 82 81 79 78 78 79
114 114 112 112 112 111 109 108 108 108 108 107 107 106 106 107 108 107 105 101 98 99 98 93 90 88 82 78 77 76 77 77 77 77 76 77 78 78 77 75 73 72 70 69 68 68 67 68 69 69 69 69 69 69 69 69 69 70 71 72 73 74 74 74 75 76 77 78 78 77 76 77 78 78 78 78 79 81 82 83 81 79 78 78 79 80
118 117 115 115 115 114 111 109 109 110 111 111 110 110 109 109 108 105 102 99 98 100 100 97 94 88 82 80 79 78 79 81 81 81 80 79 81 82 80 77 76 75 72 70 69 69 68 68 68 69 70 70 71 71 71 71 72 72 74 75 75 75 75 76 77 78 79 79 79 78 78 79 80 80 81 82 82 83 83 81 79 78 79 79 80 81
120 120 119 118 119 118 114 111 111 113 114 115 114 112 109 107 105 103 102 101 102 102 100 99 96 88 81 81 82 82 83 83 83 83 83 83 84 83 81 79 78 77 75 73 72 70 70 70 69 69 70 70 72 72 73 73 73 75 76 76 76 77 77 78 79 80 81 81 81 81 81 82 83 83 84 84 83 81 79 78 78 78 79 80 82 83
119 120 120 120 121 120 118 116 116 118 120 120 116 111 108 107 107 106 105 104 102 102 101 101 97 90 86 86 85 83 83 84 84 85 86 86 86 84 81 80 80 79 77 76 75 73 72 71 71 71 71 72 73 73 74 74 75 76 77 77 77 78 79 80 81 82 83 83 84 84 85 86 87 87 87 85 81 78 77 77 78 79 80 81 83 85
118 118 119 120 121 120 119 119 121 124 125 121 116 112 112 112 111 110 107 103 101 101 102 101 98 93 91 90 88 87 87 88 88 89 90 90 89 86 82 81 81 80 79 78 77 75 74 73 73 74 74 74 74 75 75 76 77 78 78 77 78 79 81 82 83 84 84 85 86 87 89 90 90 90 88 84 80 78 79 80 81 81 82 83 85 86
118 118 118 119 120 120 119 120 124 126 124 119 116 117 117 116 114 112 109 105 102 103 102 101 98 95 92 91 91 90 91 91 91 90 90 89 88 85 84 83 83 82 80 79 78 77 77 76 76 76 76 76 76 77 78 78 78 78 79 79 81 82 84 84 85 85 86 87 89 91 92 92 91 89 85 82 81 81 83 84 84 84 84 85 86 87
118 118 118 119 120 120 121 122 123 123 121 118 117 117 118 116 114 113 111 108 106 106 106 104 101 96 93 93 93 93 93 94 92 89 87 88 88 87 87 86 84 82 80 79 78 78 78 79 78 78 78 79 79 80 80 80 80 80 81 82 84 84 85 85 86 87 89 91 92 92 91 90 87 85 83 82 83 85 86 86 85 85 86 86 87 88
116 117 118 119 120 121 122 122 122 122 121 119 116 114 114 114 114 114 114 110 108 108 108 105 102 98 97 98 98 99 99 99 95 89 86 87 89 89 88 86 83 81 79 79 79 79 80 81 82 82 83 83 83 83 83 83 83 83 84 85 86 87 87 88 88 90 91 92 91 90 88 86 83 82 82 84 86 87 87 87 87 86 87 87 88 89
114 115 116 118 120 121 122 123 123 123 120 116 112 111 112 114 115 116 115 110 104 101 102 102 100 98 98 100 102 103 104 104 98 90 88 90 93 92 89 86 84 83 83 83 83 84 84 85 85 86 86 86 86 86 86 86 86 87 88 89 90 90 91 91 91 92 91 90 88 85 84 82 81 81 83 85 87 87 87 87 87 88 88 88 89 90
111 113 115 117 119 121 122 124 125 123 118 111 108 108 111 113 113 115 116 108 98 95 97 97 96 96 97 99 101 103 105 103 97 93 93 97 97 95 93 90 89 88 88 88 87 87 87 88 88 88 88 88 88 89 89 90 91 92 93 93 93 93 92 92 92 90 89 87 84 82 81 80 81 82 84 85 86 87 87 88 89 89 89 90 90 92
111 111 113 116 118 120 122 123 125 123 117 110 107 108 110 111 113 116 113 102 93 93 95 94 93 95 96 98 100 101 101 99 96 94 95 96 96 95 95 93 92 91 91 91 91 90 90 91 91 91 91 92 93 94 95 96 96 96 96 95 94 92 91 91 90 89 88 86 84 83 82 82 82 83 84 85 87 88 89 90 90 91 91 92 93 94
113 112 111 112 114 116 118 121 123 123 118 112 108 109 110 113 116 117 109 99 97 99 98 95 96 99 98 98 99 98 97 96 94 92 91 92 92 93 93 93 93 93 93 93 93 93 93 93 93 93 94 94 94 95 95 95 95 95 93 92 90 90 89 89 89 89 87 86 86 85 84 84 84 84 86 87 88 89 90 91 92 92 93 94 95 96
117 115 113 112 111 112 114 116 119 120 117 111 107 109 113 115 116 113 107 105 107 108 104 100 98 99 99 99 99 97 95 94 92 90 90 90 90 89 90 91 92 92 93 93 93 93 93 92 93 93 93 93 92 92 91 91 90 90 90 89 89 90 90 90 89 88 87 87 86 85 85 85 86 87 88 89 90 91 92 93 94 95 96 98 99 100
124 122 120 116 112 111 112 114 117 116 112 105 104 108 113 114 113 110 110 112 113 112 109 105 100 99 100 101 101 100 97 95 93 92 91 91 90 89 89 90 90 90 91 91 91 91 91 91 92 91 91 91 91 91 91 90 90 90 90 91 91 91 91 90 89 88 87 87 87 87 87 88 89 90 91 92 93 94 95 97 98 99 100 101 103 105
130 129 128 125 122 118 117 117 115 110 105 103 105 110 113 113 111 112 114 114 113 112 112 111 108 106 106 105 105 104 102 99 98 96 94 92 92 91 91 91 90 90 90 90 90 90 91 91 91 91 91 91 91 90 91 91 91 91 91 92 92 91 90 89 88 88 88 88 89 89 90 91 92 93 94 95 96 97 99 100 101 103 104 106 107 109
134 133 132 133 132 130 125 122 117 113 111 113 113 114 114 114 113 113 114 113 112 111 111 112 112 111 110 109 109 108 106 104 103 100 98 96 93 92 92 92 91 91 91 91 91 91 91 91 92 92 92 92 92 91 91 91 91 91 91 91 91 90 90 90 90 90 91 91 92 93 93 94 95 96 98 99 100 101 102 104 105 106 108 110 112 113
137 136 135 136 137 136 131 127 124 122 121 121 120 118 117 117 116 115 115 114 113 112 112 113 114 115 115 114 113 112 111 109 107 106 105 103 100 99 98 97 96 96 96 95 95 95 95 95 95 95 95 95 94 93 92 91 91 90 90 91 91 92 92 93 93 94 94 95 95 96 97 98 99 101 102 104 105 106 107 108 109 111 112 114 116 117
137 138 138 137 138 138 135 131 129 128 127 126 123 121 119 118 118 117 117 116 116 116 116 116 116 116 116 116 116 116 115 114 113 112 111 110 109 108 107 106 104 103 102 102 101 100 100 100 99 99 98 98 98 97 95 94 93 93 94 94 95 96 96 97 98 98 99 99 100 101 102 104 105 106 107 109 110 111 112 113 114 115 117 118 119 119
138 139 140 139 139 139 137 134 133 132 132 132 129 126 124 122 121 120 118 118 118 118 118 118 118 118 118 118 118 117 117 117 117 116 115 114 113 113 112 112 111 110 109 108 107 107 106 106 105 104 103 103 103 103 102 101 100 100 100 101 101 102 102 103 103 104 104 105 106 107 108 109 110 112 113 114 115 116 116 117 118 119 120 120 121 121
139 140 140 140 140 139 138 136 135 134 134 135 134 133 131 128 126 124 123 122 121 121 122 122 123 123 122 122 120 119 119 118 118 117 116 115 114 114 114 113 113 113 113 112 112 112 111 111 111 111 110 110 110 109 109 108 108 108 108 108 108 108 109 109 109 109 110 111 111 112 113 114 115 116 117 118 119 120 120 121 122 122 122 122 122 123
137 139 140 141 141 141 139 138 137 137 137 137 137 137 135 133 131 130 129 127 125 124 124 124 124 125 125 124 123 122 120 119 118 117 116 115 115 115 115 114 114 114 114 114 115 115 115 115 116 116 115 115 115 115 114 114 114 114 114 114 114 114 115 115 115 115 116 116 117 117 118 119 120 121 122 122 123 123 123 124 124 124 124 124 124 125
133 136 138 140 141 141 140 140 140 140 140 139 140 140 139 137 136 134 133 131 129 129 128 127 126 124 124 123 123 122 121 119 118 117 116 116 117 117 118 118 117 116 116 115 116 116 117 118 119 119 119 119 119 119 119 119 119 119 119 119 119 119 120 120 120 121 121 121 121 122 122 123 124 125 125 126 126 126 126 126 126 126 126 126 126 126
Wind_Direction
249 251 251 251 253 256 258 258 258 259 260 262 263 264 265 265 267 269 271 272 274 276 278 279 283 285 284 284 282 282 283 284 284 286 285 285 285 284 284 284 283 283 284 285 286 286 286 286 285 283 281 280 280 281 281 279 277 275 275 275 276 275 275 275 276 276 276 277 279 281 282 283 284 285 285 286 287 287 287 288 288 289 289 289 289 289
249 249 250 252 254 256 256 256 257 258 260 262 263 263 264 266 267 268 270 272 274 275 276 278 281 283 284 284 282 280 280 282 283 284 284 283 284 285 284 283 282 282 284 287 289 289 287 286 286 286 284 283 282 282 281 280 280 279 279 278 277 275 274 274 274 275 276 277 279 280 281 281 281 282 283 284 285 286 287 288 288 289 289 288 288 288
247 248 250 252 254 254 254 255 257 258 260 261 262 263 264 265 267 269 269 271 272 273 275 276 279 282 283 284 283 280 280 280 280 281 281 281 283 283 283 282 282 283 285 288 290 290 289 287 286 286 286 286 284 283 282 282 282 281 280 279 278 277 277 277 277 277 278 278 279 279 280 280 280 281 282 283 284 285 286 287 287 288 288 288 288 288
247 248 251 252 253 253 254 255 256 257 259 260 261 262 263 265 267 269 269 269 271 272 273 275 277 281 282 282 282 281 281 281 280 279 279 280 281 281 281 281 281 283 285 286 287 288 289 288 287 286 286 286 286 285 284 283 282 281 280 279 279 280 280 279 279 278 279 280 280 280 280 280 281 281 281 283 284 285 285 286 286 286 286 287 287 287
247 249 251 252 251 252 253 254 255 257 258 260 261 262 263 266 267 268 268 269 270 271 272 274 276 279 281 281 280 280 282 282 282 281 282 282 281 281 281 282 283 285 286 287 287 287 287 287 286 286 284 284 285 284 284 283 282 280 279 280 280 280 280 279 279 279 279 280 280 280 280 280 281 281 281 282 283 285 285 285 285 285 285 286 286 287
248 249 250 251 251 251 252 254 256 257 258 259 261 262 264 265 266 266 268 269 270 270 271 273 274 276 278 279 279 280 283 284 284 284 285 285 283 282 282 283 285 287 290 291 290 288 286 285 285 285 284 283 281 281 282 282 281 281 280 280 278 278 277 277 278 279 279 280 280 280 280 280 281 281 282 283 283 284 285 285 285 286 286 286 287 287
248 249 250 251 251 251 253 255 256 257 258 260 261 262 262 263 264 265 267 268 269 269 270 273 274 271 273 277 279 281 284 285 285 286 286 285 284 284 283 284 286 288 291 291 289 287 286 286 285 284 283 282 280 280 280 279 280 280 280 279 278 277 277 277 276 277 277 277 278 279 280 280 280 281 282 283 283 283 284 284 285 285 286 286 287 287
247 248 249 251 252 254 255 256 257 258 258 259 260 260 261 262 264 265 266 267 268 268 270 274 275 269 266 272 277 282 284 285 286 287 287 286 285 286 286 287 288 289 291 290 288 287 287 287 286 285 283 282 281 281 280 279 279 280 280 279 279 278 278 278 278 277 277 277 277 278 279 280 280 280 281 282 282 282 283 283 284 284 285 285 286 286
247 249 251 252 254 255 256 256 257 258 257 257 258 260 261 262 263 264 265 266 266 267 269 274 274 270 264 266 274 279 283 285 287 287 286 285 285 287 288 289 289 290 290 290 288 288 287 286 285 284 283 282 281 281 281 281 281 281 282 281 280 280 280 281 281 281 280 280 279 279 280 280 281 281 281 281 281 282 282 283 283 284 284 284 285 285
247 250 251 252 254 254 255 255 256 257 257 257 257 259 261 262 263 263 263 264 265 266 269 271 271 270 267 265 269 273 278 283 286 285 284 285 286 288 289 290 291 291 291 291 290 289 287 286 285 283 282 281 281 281 281 281 282 282 282 282 281 281 281 281 281 281 281 280 280 280 281 281 282 283 283 283 282 282 282 283 283 284 284 284 284 285
247 249 251 252 252 252 253 254 254 255 256 256 257 259 260 261 261 262 262 263 265 267 268 267 267 269 270 267 267 270 274 276 278 279 281 284 286 287 288 289 290 291 291 291 290 290 289 287 286 284 282 281 281 280 281 281 281 282 282 281 281 281 281 281 281 280 280 280 280 280 281 281 282 283 283 283 283 283 284 284 284 285 285 286 286 287
245 246 248 249 249 250 251 252 253 255 257 257 258 258 258 259 259 260 261 263 266 267 265 264 265 268 271 269 267 269 272 272 272 274 276 278 281 284 286 288 289 290 290 290 290 289 289 287 286 284 283 282 282 281 281 281 280 281 280 280 280 280 281 282 282 282 282 282 282 283 283 283 283 284 284 284 284 285 285 286 286 287 287 288 288 288
245 245 246 248 249 251 252 254 255 256 257 256 256 255 255 256 258 260 262 264 266 265 263 263 264 267 271 270 267 269 270 271 273 273 274 276 278 281 284 285 287 288 289 290 290 289 287 286 285 284 284 284 283 283 282 282 281 281 280 280 280 281 282 282 283 284 285 285 285 285 285 285 285 285 285 286 286 286 286 286 287 287 287 287 288 288
247 247 248 250 251 252 253 254 254 254 254 253 254 254 255 257 259 261 262 263 264 264 264 263 264 267 270 268 267 269 271 272 274 274 275 275 276 279 282 284 285 285 288 289 289 288 286 285 284 284 284 284 283 283 283 283 282 282 281 281 281 281 282 283 284 285 285 286 286 286 286 286 286 286 287 287 287 287 287 287 287 287 287 287 288 288
249 249 250 250 250 251 251 252 252 252 252 253 254 255 256 258 260 260 260 261 262 263 264 265 266 267 267 265 266 269 272 275 276 275 275 275 275 275 277 281 283 285 287 287 287 287 286 285 283 283 282 283 283 283 283 283 283 282 282 282 282 283 283 284 285 286 286 287 287 287 287 288 288 288 288 288 288 288 288 288 288 288 288 288 289 289
249 249 249 249 249 249 250 251 251 252 252 253 254 255 257 259 261 261 261 262 262 263 265 266 267 266 265 265 267 269 271 274 274 274 275 276 277 277 277 278 281 285 286 286 285 285 285 284 283 283 283 283 283 284 284 284 284 283 283 284 285 286 287 287 288 288 288 288 288 288 289 289 289 289 288 288 288 288 288 288 288 288 289 289 290 290
249 248 248 249 249 250 250 251 252 253 254 255 256 257 259 259 260 261 262 263 263 264 264 265 266 266 266 267 268 269 270 271 271 272 274 276 278 280 281 281 282 284 284 284 284 284 284 284 284 284 284 284 285 285 284 284 284 285 286 287 289 289 290 290 290 290 290 290 290 290 290 290 289 289 288 288 287 288 288 288 288 289 289 290 290 291
247 247 247 248 249 250 251 251 252 253 255 256 258 259 259 259 260 262 263 264 264 264 264 264 265 265 266 268 269 269 270 270 270 271 273 277 279 280 282 284 285 284 282 282 282 284 285 285 285 286 286 287 287 286 285 285 286 286 288 289 289 289 289 289 289 289 290 291 291 291 291 290 289 288 288 287 287 287 288 288 289 290 291 291 292 292
246 246 246 247 248 249 250 251 252 253 255 257 258 259 259 260 261 262 263 263 264 266 266 266 265 265 266 267 267 267 268 270 271 273 275 278 280 280 282 285 286 283 282 282 282 284 285 284 286 288 289 289 288 287 287 287 288 288 288 288 288 287 287 287 287 287 289 290 291 291 291 290 289 288 287 287 287 288 289 290 291 292 293 293 294 294
247 247 246 246 247 248 249 251 253 255 256 257 257 258 258 259 260 261 262 264 266 267 269 269 267 266 265 265 265 266 268 270 272 274 277 279 280 280 281 282 283 283 282 281 282 283 283 283 286 289 290 290 289 289 289 288 288 287 287 287 287 287 286 286 286 288 290 292 292 292 292 291 290 289 289 288 289 290 291 292 293 294 295 296 296 296
248 248 248 247 247 249 250 252 253 254 255 255 256 256 257 258 260 261 263 265 267 269 270 269 268 266 263 264 265 267 268 269 272 276 280 281 280 279 278 279 280 282 282 281 282 283 283 282 285 288 290 290 289 288 287 287 287 285 286 287 288 288 287 287 289 291 293 294 294 294 293 293 292 291 291 292 292 293 294 295 296 297 297 298 297 297
249 250 249 248 248 248 249 250 251 252 253 254 255 256 258 259 261 263 264 265 266 267 267 267 268 267 264 265 267 268 269 271 274 277 279 280 279 277 277 277 278 280 282 283 284 285 284 283 284 287 288 288 286 285 285 285 285 285 286 288 289 289 289 290 292 293 295 296 296 296 295 294 294 294 294 294 295 296 297 297 298 298 299 298 298 297
250 250 250 250 250 250 250 250 250 251 253 254 255 257 259 261 262 264 264 263 263 263 264 266 270 271 267 265 267 270 273 275 275 276 277 278 278 277 275 276 278 280 282 284 285 285 285 285 286 287 287 286 284 283 282 283 284 285 286 288 289 290 291 292 294 295 295 296 297 297 296 295 295 295 295 295 296 297 297 298 298 299 299 299 298 297
250 251 251 251 251 251 251 251 251 252 253 255 257 259 260 261 262 262 262 261 260 261 263 266 272 276 272 267 268 272 276 277 275 275 275 276 277 277 276 277 280 282 282 282 283 284 286 287 287 287 287 286 284 282 281 283 284 285 286 287 289 290 292 293 294 295 295 296 297 297 296 295 295 295 295 295 296 297 297 298 298 299 300 299 299 298
250 251 251 251 251 250 250 251 252 254 256 257 258 259 259 259 260 260 260 261 261 262 265 269 275 279 273 268 270 274 276 275 273 273 273 275 276 277 278 279 280 281 279 278 281 285 288 288 288 288 289 288 286 284 283 283 284 285 286 287 289 290 292 293 294 294 295 295 296 296 296 295 295 295 295 296 296 297 297 297 298 298 299 299 299 298
251 251 251 251 251 251 252 252 254 256 257 257 257 257 257 258 259 260 260 261 262 265 268 271 275 276 273 272 273 273 272 271 271 272 273 275 275 276 278 280 279 277 276 277 281 285 287 288 288 289 290 289 287 286 286 285 285 286 286 287 288 290 291 292 293 293 294 294 295 295 295 295 295 295 296 296 297 297 297 296 297 298 298 298 297 296
253 253 253 253 254 254 254 254 254 255 255 256 256 257 258 258 259 260 261 262 265 267 268 270 274 275 275 274 273 270 270 270 271 273 273 273 274 276 277 277 277 275 275 277 281 284 286 287 288 288 288 287 286 286 287 287 286 286 286 287 288 289 290 291 291 292 292 293 294 294 294 295 295 296 296 296 296 296 295 295 296 297 297 296 295 295
254 255 255 256 256 256 256 255 255 255 255 256 257 257 258 259 260 260 261 263 265 266 268 271 273 274 274 274 272 271 271 271 271 271 272 273 274 275 275 275 276 277 277 278 281 284 287 287 287 286 286 285 286 287 287 286 286 286 287 288 288 289 289 290 290 291 292 292 293 293 294 294 295 295 295 294 294 293 293 294 295 295 295 294 294 293
254 255 256 257 258 258 257 257 256 256 256 256 257 257 258 258 259 260 262 263 265 267 270 271 271 272 274 274 272 272 271 271 272 272 273 274 274 275 277 278 279 279 279 279 280 283 285 285 285 284 285 286 287 287 286 285 285 285 286 287 288 288 288 289 289 290 290 291 292 292 293 293 294 293 293 293 292 292 292 293 294 293 293 292 292 292
254 255 256 257 258 258 258 258 258 258 258 258 257 257 258 258 258 260 262 264 266 268 269 269 269 270 272 273 272 272 272 272 272 273 273 274 275 277 279 281 281 280 279 278 279 279 280 281 282 284 286 287 287 286 285 285 284 285 285 286 287 287 288 289 289 289 290 290 291 291 292 293 293 293 292 292 291 291 292 292 292 291 291 291 291 292
252 254 254 256 257 257 258 259 259 259 259 258 258 257 258 258 260 262 264 266 266 267 267 268 268 269 272 272 271 270 270 271 273 274 275 275 276 277 279 280 280 279 278 277 277 277 277 278 280 283 285 285 285 285 284 283 283 284 285 285 286 287 288 288 288 289 289 290 290 291 291 292 292 292 292 292 292 292 291 291 290 290 290 291 291 291
251 252 253 254 255 256 256 257 258 259 259 259 258 259 259 261 262 264 264 264 265 266 267 268 270 272 272 270 269 270 272 273 274 274 274 274 274 275 276 277 277 277 278 277 277 277 278 279 280 281 282 282 282 282 282 282 282 283 284 285 286 287 287 287 288 288 289 289 290 290 291 291 292 292 293 292 292 291 290 290 290 290 290 291 291 291
251 252 253 254 255 256 256 256 257 257 258 259 259 261 262 263 263 263 262 263 265 267 268 269 271 272 271 270 270 272 272 271 271 271 272 273 274 275 276 277 277 277 278 278 278 278 278 279 279 279 279 279 279 279 280 281 281 282 283 284 285 286 286 286 287 287 288 289 289 290 290 290 291 292 292 291 290 288 289 290 290 290 291 291 291 291
252 253 254 254 255 256 257 257 257 257 257 259 260 262 262 262 262 263 264 265 266 267 268 269 270 270 270 270 270 269 269 269 270 271 273 274 275 276 276 276 276 276 276 277 277 278 278 278 278 277 277 277 278 279 279 280 281 281 282 283 284 285 285 286 286 287 287 288 288 289 290 290 290 290 290 289 287 287 288 289 290 290 291 291 292 292
254 254 255 255 256 257 257 257 258 258 258 259 261 261 261 261 262 264 265 265 266 267 267 268 268 269 269 270 270 270 270 270 270 271 273 274 275 275 275 274 273 274 275 276 277 278 278 278 277 277 277 278 279 279 279 279 280 280 281 282 283 284 285 285 286 286 287 288 288 289 289 289 289 288 287 285 285 286 288 289 290 290 291 291 292 292
256 257 257 257 257 258 258 258 259 260 261 261 260 261 262 263 263 263 264 264 264 265 265 266 267 269 271 271 271 270 269 269 269 270 271 272 273 272 272 272 272 273 275 276 277 277 277 277 277 277 278 278 278 278 279 279 279 280 280 282 283 284 284 285 285 286 287 288 288 289 288 288 287 285 284 284 284 286 287 288 289 289 290 291 292 293
258 258 259 259 259 259 259 260 260 260 261 261 262 263 264 265 265 264 263 262 262 264 265 267 268 269 270 270 270 270 269 269 269 269 271 271 270 270 271 271 272 273 274 274 275 275 275 276 277 277 277 278 278 278 278 278 279 279 280 281 282 283 283 284 284 285 286 287 287 287 286 285 284 283 282 283 284 286 287 288 288 289 289 290 291 292
257 258 259 259 260 260 261 261 260 260 260 261 263 265 266 266 266 266 265 264 263 265 267 267 268 268 268 269 269 269 269 268 269 270 270 269 269 269 270 271 272 273 273 274 274 275 275 276 276 277 277 278 278 278 278 278 278 279 280 280 281 282 282 283 283 284 285 285 285 285 284 282 281 281 282 283 285 286 287 287 288 288 289 290 291 293
254 256 257 258 259 260 261 262 262 263 263 263 264 265 266 267 267 267 267 266 266 267 268 268 267 267 267 267 267 267 268 268 269 269 268 268 269 271 272 272 273 273 274 275 275 275 275 276 276 276 277 277 277 278 278 278 278 279 279 280 281 281 281 281 282 282 283 283 283 283 283 282 281 281 282 283 285 286 286 287 288 288 289 291 292 294
251 253 255 257 258 260 261 263 264 265 265 266 266 267 267 268 268 267 266 266 268 270 269 268 267 266 266 265 266 266 267 268 268 267 267 269 270 272 273 273 274 274 274 274 274 274 275 275 275 276 276 276 277 277 277 278 278 278 279 280 280 280 279 280 280 281 281 281 281 281 282 282 282 282 283 284 285 286 286 287 288 289 291 292 294 296
250 251 252 254 256 259 260 262 263 265 266 266 267 267 267 268 268 269 270 272 272 272 270 267 266 266 266 266 266 266 267 268 268 268 269 269 270 270 270 271 271 272 272 272 272 273 273 273 273 274 274 275 276 276 277 277 277 278 278 278 278 278 278 279 280 280 280 280 280 281 282 282 283 283 284 285 286 286 288 289 290 291 293 295 296 297
249 250 251 252 253 256 258 261 263 264 265 266 267 267 268 268 269 271 273 273 272 271 270 267 266 267 268 268 268 268 268 269 269 270 270 269 269 269 269 269 269 269 270 270 270 271 271 271 272 272 272 273 274 274 275 275 276 276 276 276 277 278 278 279 279 280 280 280 281 282 282 283 284 285 286 287 288 289 290 291 293 294 295 297 298 299
247 248 250 251 252 253 254 256 259 262 265 267 266 266 266 266 267 268 268 268 269 270 271 270 269 270 270 271 272 272 271 270 270 270 269 269 269 269 269 269 269 269 269 269 270 270 270 271 271 271 272 272 273 273 274 274 274 274 275 276 277 278 278 279 279 280 280 281 282 283 284 286 287 288 289 290 291 292 293 294 296 297 298 299 299 300
246 247 248 250 251 251 252 253 256 259 262 262 260 261 263 264 265 265 266 267 268 270 271 272 272 272 272 273 273 274 274 274 273 271 270 270 269 270 270 269 269 270 270 270 271 271 271 272 272 273 273 273 273 274 274 274 275 275 275 276 277 278 278 279 280 281 282 283 284 286 287 288 289 290 292 293 294 295 296 297 298 298 299 300 301 301
247 246 247 248 249 250 252 253 255 256 256 256 256 258 260 262 263 264 266 267 268 269 270 271 272 273 274 275 275 276 276 276 276 275 274 273 272 272 272 273 273 273 273 274 274 274 274 275 275 276 276 276 276 276 276 276 276 276 277 277 278 279 280 281 282 283 285 286 287 288 289 290 292 293 294 295 296 297 298 298 299 299 300 300 301 301
248 248 248 248 249 250 250 252 253 254 254 255 256 257 258 259 260 262 264 266 267 268 269 270 271 273 274 275 276 277 277 278 278 279 279 279 279 279 279 279 279 278 278 278 278 278 279 279 279 279 280 279 279 278 278 277 277 278 279 280 281 282 284 285 286 287 288 289 290 290 292 293 294 295 297 297 298 298 299 299 299 300 300 300 300 301
249 249 249 249 249 250 250 250 251 253 254 255 256 256 258 259 260 261 262 264 265 266 267 268 270 271 272 274 275 276 277 278 278 279 280 281 282 283 283 282 282 282 282 282 282 282 282 282 282 282 282 282 282 282 282 282 282 283 284 284 285 286 287 288 289 290 291 291 292 293 295 296 297 298 298 299 299 299 299 299 299 299 300 300 300 300
249 249 250 250 250 250 251 251 251 252 253 255 256 256 257 258 260 261 261 262 263 264 265 266 267 269 270 271 272 273 275 276 277 278 279 280 281 282 282 283 283 283 284 284 284 284 284 284 284 284 285 285 286 286 287 287 287 287 288 288 289 290 290 291 292 292 293 294 295 296 296 297 298 298 298 298 298 298 298 299 299 299 299 299 299 300
249 250 251 251 251 251 251 251 251 252 253 254 255 256 257 257 258 259 260 260 261 262 262 264 265 267 268 270 271 272 273 274 275 276 277 278 279 279 280 280 281 282 283 283 284 284 285 285 286 286 287 287 288 288 289 289 290 290 290 291 291 292 292 292 293 293 294 295 295 296 297 297 297 298 298 298 298 298 298 298 299 299 299 299 299 300
250 251 251 252 252 252 252 252 252 252 252 253 254 255 256 256 257 258 259 260 261 262 263 264 265 266 267 268 270 270 271 272 273 274 275 276 276 277 277 277 278 278 279 280 281 282 283 284 285 285 286 287 287 288 289 289 290 290 291 291 292 292 292 292 293 294 294 295 295 296 296 296 296 297 297 297 297 298 298 298 298 298 299 299 299 299
250 251 251 252 252 252 253 252 252 252 253 253 254 255 255 256 257 258 259 260 261 262 263 263 264 264 265 266 267 268 269 270 270 271 272 273 274 274 275 275 276 276 277 278 279 280 281 282 283 284 285 286 286 287 287 288 289 289 290 290 291 291 291 292 292 293 293 294 294 295 295 295 296 296 296 297 297 298 298 298 298 298 298 298 298 298
Height
10752 10754 10754 10752 10753 10760 10765 10764 10763 10764 10764 10765 10766 10767 10768 10768 10769 10773 10777 10777 10780 10781 10780 10782 10782 10779 10779 10781 10782 10782 10781 10778 10778 10779 10780 10781 10783 10784 10785 10785 10784 10783 10782 10784 10785 10786 10785 10784 10784 10783 10783 10783 10782 10782 10783 10782 10782 10782 10781 10781 10781 10780 10779 10778 10777 10776 10775 10775 10774 10774 10773 10773 10772 10770 10770 10769 10769 10768 10768 10767 10766 10765 10763 10763 10762 10761
10749 10749 10746 10746 10752 10759 10759 10757 10757 10759 10760 10761 10762 10762 10763 10762 10764 10769 10773 10773 10776 10778 10777 10779 10781 10777 10775 10776 10776 10778 10779 10776 10775 10776 10775 10777 10779 10780 10781 10781 10780 10780 10780 10780 10781 10782 10782 10781 10780 10779 10779 10778 10778 10778 10777 10777 10777 10777 10777 10777 10776 10776 10775 10774 10773 10772 10771 10771 10770 10770 10769 10769 10768 10766 10765 10765 10764 10763 10762 10761 10760 10759 10757 10756 10756 10755
10744 10742 10739 10744 10751 10753 10752 10751 10752 10754 10755 10756 10757 10758 10757 10757 10759 10764 10767 10769 10771 10774 10774 10775 10779 10776 10772 10771 10769 10771 10775 10772 10772 10772 10772 10773 10775 10776 10777 10777 10777 10777 10777 10777 10778 10778 10778 10778 10777 10776 10774 10774 10774 10773 10773 10773 10773 10772 10772 10772 10771 10771 10770 10770 10769 10768 10767 10766 10766 10765 10764 10763 10763 10762 10761 10759 10759 10758 10757 10756 10755 10754 10752 10750 10749 10749
10738 10736 10736 10741 10745 10746 10746 10746 10747 10749 10750 10751 10752 10753 10752 10752 10755 10758 10761 10764 10766 10770 10770 10771 10776 10774 10769 10767 10763 10765 10770 10768 10767 10768 10768 10771 10772 10772 10773 10773 10774 10775 10775 10775 10775 10775 10774 10774 10774 10772 10771 10770 10769 10769 10768 10768 10768 10768 10767 10767 10766 10766 10765 10765 10764 10763 10762 10761 10761 10760 10759 10758 10757 10757 10756 10754 10753 10752 10751 10751 10750 10749 10747 10744 10743 10743
10732 10731 10733 10736 10738 10739 10740 10741 10742 10743 10745 10746 10747 10747 10746 10747 10750 10752 10753 10757 10761 10765 10766 10767 10774 10773 10766 10762 10758 10759 10764 10762 10760 10763 10764 10766 10769 10768 10769 10769 10771 10772 10772 10772 10772 10771 10771 10770 10769 10769 10767 10766 10765 10764 10763 10763 10763 10762 10762 10762 10762 10761 10760 10759 10758 10758 10757 10756 10755 10754 10754 10753 10752 10751 10750 10750 10748 10747 10746 10744 10743 10742 10741 10739 10737 10736
10726 10727 10727 10728 10731 10733 10734 10735 10737 10738 10739 10740 10741 10742 10741 10742 10744 10746 10747 10750 10755 10759 10760 10763 10770 10771 10764 10757 10753 10755 10759 10755 10754 10759 10760 10760 10762 10764 10765 10766 10767 10768 10768 10768 10768 10767 10766 10766 10765 10764 10763 10762 10761 10759 10759 10758 10757 10757 10757 10757 10757 10756 10755 10754 10754 10753 10752 10751 10750 10749 10748 10747 10746 10745 10744 10744 10743 10742 10740 10738 10736 10735 10734 10732 10731 10729
10721 10720 10720 10720 10724 10727 10729 10731 10731 10732 10733 10735 10737 10735 10735 10736 10737 10740 10741 10743 10748 10752 10755 10759 10764 10768 10764 10754 10749 10752 10754 10750 10748 10752 10755 10754 10754 10757 10760 10762 10764 10764 10765 10764 10763 10762 10762 10761 10760 10759 10759 10757 10756 10755 10754 10753 10753 10752 10752 10751 10751 10750 10749 10749 10749 10748 10747 10747 10745 10743 10742 10741 10741 10740 10739 10738 10737 10736 10734 10732 10730 10729 10727 10726 10725 10723
10714 10712 10713 10715 10717 10722 10727 10726 10723 10725 10728 10731 10730 10727 10729 10731 10731 10733 10734 10736 10741 10745 10751 10755 10755 10759 10763 10755 10748 10749 10749 10746 10744 10746 10748 10747 10747 10750 10752 10756 10758 10759 10760 10759 10758 10757 10757 10756 10755 10754 10753 10752 10751 10751 10749 10748 10748 10747 10747 10746 10746 10745 10744 10743 10743 10743 10742 10741 10740 10738 10737 10735 10734 10734 10734 10733 10731 10729 10728 10726 10725 10723 10721 10720 10718 10716
10707 10706 10708 10711 10714 10718 10720 10717 10716 10718 10722 10724 10722 10721 10723 10724 10725 10726 10726 10729 10732 10738 10749 10752 10744 10747 10760 10758 10749 10748 10746 10742 10741 10740 10740 10740 10741 10743 10745 10749 10752 10753 10754 10754 10753 10753 10752 10751 10751 10749 10748 10747 10747 10745 10744 10743 10743 10743 10742 10741 10740 10739 10738 10738 10737 10737 10736 10735 10734 10733 10731 10730 10728 10727 10728 10727 10725 10723 10722 10720 10718 10717 10715 10713 10712 10710
10702 10702 10703 10705 10709 10711 10710 10709 10709 10711 10713 10716 10716 10716 10716 10716 10718 10717 10719 10721 10723 10733 10748 10748 10735 10734 10752 10758 10749 10748 10747 10741 10739 10734 10733 10735 10735 10737 10739 10742 10745 10747 10748 10748 10748 10747 10747 10746 10745 10744 10743 10742 10741 10741 10739 10739 10738 10738 10737 10736 10735 10734 10733 10733 10732 10732 10731 10730 10728 10727 10726 10725 10723 10721 10721 10720 10719 10717 10715 10714 10712 10710 10708 10706 10705 10703
10697 10697 10696 10699 10702 10702 10701 10701 10702 10702 10706 10709 10710 10711 10708 10707 10707 10707 10711 10714 10716 10731 10743 10740 10729 10726 10744 10755 10746 10744 10746 10742 10739 10733 10728 10731 10732 10732 10734 10736 10738 10740 10742 10743 10743 10742 10741 10740 10739 10738 10737 10736 10736 10736 10735 10734 10733 10733 10732 10731 10730 10728 10728 10727 10726 10726 10725 10724 10722 10721 10720 10719 10717 10715 10714 10713 10711 10710 10708 10707 10705 10703 10701 10699 10697 10696
10688 10689 10688 10689 10690 10691 10692 10693 10695 10696 10699 10702 10703 10702 10698 10696 10696 10698 10705 10709 10713 10727 10732 10729 10725 10724 10739 10751 10741 10738 10741 10737 10736 10732 10727 10730 10731 10729 10730 10731 10732 10733 10736 10737 10737 10737 10736 10734 10733 10731 10730 10730 10730 10730 10729 10729 10728 10728 10727 10726 10724 10723 10722 10721 10720 10719 10718 10718 10716 10715 10714 10713 10711 10709 10707 10706 10705 10703 10702 10700 10698 10696 10694 10692 10690 10688
10678 10680 10681 10681 10682 10685 10687 10688 10690 10691 10691 10691 10689 10688 10686 10686 10689 10694 10701 10704 10708 10716 10719 10720 10721 10724 10737 10743 10735 10733 10733 10730 10731 10728 10725 10729 10730 10727 10726 10726 10726 10727 10730 10732 10732 10732 10731 10729 10727 10725 10724 10724 10724 10724 10724 10723 10722 10722 10721 10720 10718 10717 10716 10715 10714 10714 10713 10712 10711 10709 10708 10706 10705 10703 10701 10700 10698 10697 10696 10694 10692 10690 10687 10685 10683 10681
10671 10674 10676 10678 10680 10680 10680 10680 10681 10680 10677 10675 10675 10676 10678 10681 10685 10692 10696 10696 10699 10704 10708 10712 10716 10725 10734 10734 10729 10728 10724 10724 10726 10723 10721 10725 10728 10726 10722 10720 10720 10722 10725 10726 10726 10725 10725 10723 10721 10720 10719 10718 10718 10718 10717 10717 10716 10715 10714 10713 10712 10711 10711 10710 10709 10708 10707 10706 10705 10703 10701 10700 10699 10698 10696 10694 10692 10691 10689 10688 10685 10683 10681 10678 10676 10674
10663 10668 10672 10672 10671 10670 10669 10669 10668 10666 10663 10665 10667 10668 10672 10678 10680 10684 10685 10687 10691 10695 10698 10704 10712 10723 10728 10726 10725 10723 10719 10719 10720 10717 10715 10716 10720 10722 10721 10718 10715 10717 10720 10720 10720 10719 10718 10716 10715 10714 10713 10713 10713 10712 10712 10711 10710 10709 10708 10707 10706 10705 10705 10704 10703 10702 10702 10700 10699 10697 10695 10694 10693 10691 10690 10688 10685 10684 10682 10681 10678 10676 10674 10671 10669 10667
10653 10660 10664 10659 10659 10660 10658 10657 10655 10654 10654 10657 10659 10662 10669 10675 10672 10670 10674 10680 10683 10686 10692 10698 10706 10716 10719 10719 10721 10719 10716 10715 10713 10711 10709 10707 10708 10710 10715 10718 10714 10713 10714 10714 10713 10713 10711 10709 10708 10708 10708 10708 10708 10707 10706 10705 10704 10703 10702 10701 10700 10700 10699 10698 10697 10696 10695 10694 10692 10691 10689 10687 10686 10684 10682 10681 10679 10677 10675 10673 10671 10668 10666 10664 10662 10660
10642 10649 10652 10648 10648 10650 10648 10648 10646 10646 10647 10649 10654 10660 10665 10666 10662 10660 10664 10671 10673 10677 10686 10693 10699 10707 10710 10714 10716 10712 10711 10710 10707 10706 10703 10701 10702 10700 10702 10710 10713 10710 10708 10707 10707 10706 10704 10703 10702 10702 10702 10702 10702 10701 10700 10699 10698 10696 10695 10695 10695 10694 10693 10692 10691 10689 10688 10687 10686 10684 10683 10680 10679 10677 10675 10674 10672 10670 10668 10665 10663 10661 10658 10657 10654 10652
10630 10634 10639 10639 10639 10639 10639 10639 10639 10639 10641 10645 10651 10656 10655 10653 10654 10655 10655 10660 10663 10666 10675 10685 10693 10700 10704 10708 10710 10704 10703 10704 10700 10700 10699 10698 10698 10695 10692 10699 10705 10704 10701 10701 10701 10700 10699 10697 10696 10696 10695 10696 10696 10695 10694 10693 10692 10691 10690 10690 10689 10688 10687 10685 10685 10683 10682 10681 10679 10678 10676 10674 10672 10670 10668 10666 10664 10662 10660 10658 10655 10653 10651 10649 10646 10644
10620 10622 10627 10630 10629 10630 10629 10628 10631 10635 10638 10641 10645 10646 10644 10643 10647 10647 10645 10648 10654 10656 10665 10677 10686 10694 10700 10703 10701 10696 10696 10696 10694 10694 10695 10694 10692 10689 10686 10690 10695 10695 10693 10693 10695 10694 10694 10692 10691 10690 10689 10689 10688 10688 10688 10687 10686 10685 10684 10684 10683 10682 10681 10680 10679 10678 10676 10675 10673 10671 10669 10667 10665 10663 10661 10659 10657 10655 10652 10650 10648 10646 10643 10641 10638 10635
10608 10608 10614 10620 10621 10621 10621 10622 10629 10634 10634 10633 10634 10634 10634 10635 10636 10638 10638 10642 10647 10650 10656 10665 10673 10686 10695 10694 10691 10690 10690 10690 10688 10687 10688 10688 10687 10683 10681 10682 10684 10685 10685 10686 10687 10688 10688 10687 10686 10686 10685 10683 10682 10682 10681 10681 10680 10679 10678 10677 10677 10676 10675 10673 10672 10671 10669 10667 10666 10664 10662 10660 10657 10656 10653 10651 10649 10647 10644 10642 10640 10637 10635 10632 10630 10626
10596 10597 10605 10612 10612 10612 10616 10622 10626 10626 10623 10620 10621 10623 10626 10628 10629 10632 10635 10638 10642 10643 10646 10650 10657 10675 10688 10686 10684 10685 10683 10682 10681 10681 10682 10681 10680 10678 10676 10676 10676 10677 10677 10677 10680 10682 10683 10683 10682 10682 10681 10679 10677 10676 10675 10674 10673 10673 10672 10671 10670 10669 10667 10666 10664 10663 10661 10659 10658 10656 10654 10652 10649 10647 10645 10643 10641 10638 10636 10634 10631 10629 10626 10624 10621 10618
10587 10589 10592 10597 10602 10606 10612 10614 10614 10613 10611 10610 10612 10616 10621 10625 10625 10627 10631 10636 10637 10633 10634 10634 10638 10663 10682 10679 10678 10678 10675 10676 10675 10674 10675 10672 10671 10672 10669 10668 10669 10670 10669 10669 10672 10674 10675 10677 10677 10677 10676 10674 10672 10670 10669 10668 10667 10666 10666 10664 10662 10661 10659 10658 10656 10655 10653 10651 10649 10647 10645 10644 10641 10639 10637 10635 10632 10630 10627 10625 10623 10621 10618 10615 10612 10609
10576 10576 10579 10586 10595 10601 10603 10604 10603 10604 10604 10604 10607 10614 10620 10621 10622 10622 10621 10625 10624 10619 10622 10622 10625 10654 10676 10671 10671 10673 10669 10670 10669 10666 10666 10663 10663 10664 10662 10662 10661 10662 10663 10661 10662 10665 10667 10670 10670 10670 10670 10668 10666 10664 10662 10661 10661 10660 10660 10657 10655 10653 10651 10650 10648 10647 10645 10643 10641 10639 10637 10635 10633 10631 10629 10626 10624 10622 10619 10617 10615 10612 10610 10607 10604 10600
10565 10564 10570 10578 10584 10588 10591 10594 10596 10597 10599 10602 10609 10616 10616 10615 10615 10610 10606 10609 10609 10608 10616 10615 10617 10650 10671 10663 10663 10669 10665 10663 10661 10658 10657 10655 10654 10654 10655 10657 10656 10654 10654 10652 10651 10654 10659 10662 10663 10662 10663 10661 10659 10657 10656 10655 10655 10654 10652 10650 10647 10646 10644 10642 10640 10639 10637 10635 10633 10631 10629 10627 10625 10623 10621 10618 10616 10614 10611 10609 10606 10603 10600 10597 10594 10591
10552 10552 10559 10563 10567 10573 10579 10585 10591 10596 10599 10603 10608 10608 10605 10604 10601 10595 10595 10596 10594 10600 10612 10610 10614 10646 10663 10655 10656 10662 10658 10655 10651 10648 10649 10649 10647 10647 10648 10652 10652 10648 10644 10642 10642 10645 10648 10652 10653 10653 10654 10653 10651 10650 10650 10650 10649 10647 10644 10642 10640 10638 10636 10635 10633 10631 10629 10628 10626 10623 10621 10619 10617 10615 10613 10610 10608 10605 10603 10600 10597 10594 10591 10588 10585 10581
10541 10542 10547 10549 10553 10563 10573 10582 10591 10595 10591 10589 10593 10594 10593 10592 10588 10586 10587 10582 10583 10599 10609 10604 10612 10637 10651 10648 10649 10651 10647 10645 10643 10640 10642 10642 10639 10640 10642 10644 10645 10642 10635 10633 10635 10637 10638 10640 10642 10643 10644 10643 10642 10641 10641 10642 10641 10639 10637 10634 10632 10631 10628 10627 10625 10623 10621 10619 10618 10615 10612 10611 10609 10606 10604 10601 10599 10596 10594 10591 10587 10584 10581 10578 10575 10572
10529 10531 10535 10538 10545 10556 10568 10579 10584 10581 10575 10574 10580 10584 10584 10582 10580 10578 10574 10572 10584 10596 10597 10600 10611 10626 10638 10641 10638 10637 10636 10635 10636 10634 10633 10633 10631 10634 10637 10636 10635 10634 10629 10627 10628 10630 10632 10632 10632 10633 10633 10633 10632 10633 10633 10633 10631 10630 10628 10626 10625 10623 10621 10618 10616 10614 10612 10611 10609 10606 10603 10602 10599 10597 10594 10592 10589 10587 10584 10581 10578 10575 10572 10568 10565 10562
10518 10520 10526 10530 10536 10546 10558 10567 10568 10564 10563 10567 10571 10573 10574 10572 10569 10565 10563 10571 10584 10583 10584 10603 10611 10610 10625 10632 10625 10625 10626 10624 10625 10626 10624 10624 10622 10623 10628 10628 10627 10626 10624 10623 10622 10622 10625 10625 10623 10623 10623 10622 10624 10624 10624 10623 10621 10619 10618 10616 10616 10615 10612 10610 10608 10606 10603 10602 10599 10597 10595 10593 10590 10587 10585 10582 10580 10577 10574 10571 10568 10565 10562 10559 10556 10552
10509 10511 10518 10521 10524 10533 10544 10551 10551 10550 10553 10558 10560 10561 10562 10560 10556 10555 10558 10569 10579 10573 10578 10600 10602 10596 10614 10623 10615 10614 10614 10611 10614 10616 10615 10614 10610 10612 10617 10619 10620 10619 10618 10619 10618 10617 10618 10616 10614 10613 10613 10614 10614 10614 10613 10612 10610 10609 10608 10607 10606 10605 10604 10602 10600 10597 10594 10592 10590 10587 10585 10583 10580 10577 10575 10573 10570 10567 10564 10561 10558 10555 10552 10549 10546 10543
10499 10502 10511 10512 10512 10519 10529 10534 10536 10537 10539 10544 10547 10548 10548 10546 10545 10548 10555 10568 10576 10570 10571 10584 10587 10591 10606 10610 10606 10605 10602 10600 10603 10604 10604 10604 10600 10601 10606 10608 10609 10609 10611 10613 10612 10612 10611 10609 10606 10606 10606 10606 10605 10604 10603 10602 10601 10600 10598 10597 10596 10595 10594 10593 10590 10587 10585 10583 10580 10578 10576 10572 10569 10567 10565 10563 10560 10557 10554 10551 10548 10545 10542 10539 10536 10532
10489 10492 10500 10502 10499 10504 10515 10523 10523 10522 10522 10526 10529 10532 10534 10536 10540 10548 10558 10566 10566 10559 10560 10567 10572 10588 10602 10599 10594 10594 10590 10589 10592 10592 10594 10594 10591 10591 10594 10597 10597 10598 10601 10603 10603 10603 10602 10602 10602 10601 10599 10598 10596 10595 10594 10592 10592 10590 10588 10587 10586 10585 10584 10583 10580 10577 10575 10572 10570 10568 10565 10561 10558 10557 10555 10553 10550 10547 10544 10540 10538 10535 10532 10529 10525 10521
10480 10481 10487 10490 10485 10489 10505 10512 10509 10506 10503 10503 10510 10520 10528 10534 10541 10547 10550 10551 10549 10549 10553 10555 10561 10582 10595 10586 10580 10582 10582 10582 10583 10582 10581 10580 10580 10582 10585 10588 10587 10587 10589 10591 10592 10593 10593 10594 10595 10594 10592 10590 10588 10586 10585 10584 10583 10581 10579 10578 10577 10575 10574 10572 10570 10567 10564 10562 10559 10557 10555 10551 10548 10546 10544 10542 10540 10537 10534 10530 10527 10524 10521 10518 10514 10511
10471 10471 10476 10478 10472 10478 10494 10497 10495 10492 10483 10484 10502 10519 10525 10529 10531 10530 10532 10538 10543 10545 10545 10545 10556 10572 10576 10571 10573 10576 10573 10570 10570 10569 10568 10567 10568 10572 10576 10578 10577 10576 10578 10578 10580 10582 10583 10584 10585 10584 10583 10581 10579 10578 10577 10575 10574 10572 10570 10569 10567 10566 10564 10561 10560 10557 10554 10552 10549 10546 10544 10541 10538 10536 10533 10531 10528 10526 10524 10521 10517 10514 10511 10507 10503 10499
10463 10463 10466 10467 10464 10469 10480 10482 10478 10472 10467 10481 10505 10513 10512 10514 10514 10514 10522 10534 10540 10537 10533 10537 10547 10557 10558 10559 10563 10563 10559 10559 10559 10558 10558 10557 10559 10563 10566 10567 10565 10565 10566 10567 10569 10571 10572 10573 10573 10572 10571 10570 10570 10569 10567 10566 10565 10562 10560 10559 10557 10555 10553 10551 10549 10547 10544 10542 10539 10536 10534 10531 10528 10526 10522 10519 10517 10515 10514 10510 10507 10504 10501 10497 10492 10488
10453 10454 10456 10457 10455 10458 10466 10466 10457 10453 10465 10487 10498 10495 10495 10500 10503 10507 10516 10526 10529 10525 10522 10525 10532 10542 10547 10546 10547 10548 10548 10548 10548 10549 10550 10549 10550 10552 10554 10553 10552 10553 10556 10558 10559 10560 10560 10559 10559 10558 10559 10559 10559 10559 10557 10555 10554 10552 10550 10548 10546 10544 10542 10540 10538 10536 10534 10532 10529 10526 10523 10520 10517 10515 10511 10509 10506 10504 10502 10499 10496 10493 10490 10487 10483 10478
10441 10444 10444 10445 10445 10446 10449 10449 10444 10448 10463 10475 10478 10480 10485 10489 10495 10498 10502 10510 10516 10510 10508 10513 10523 10535 10538 10533 10531 10532 10531 10530 10534 10543 10545 10541 10538 10538 10538 10540 10541 10543 10547 10549 10548 10549 10547 10546 10546 10547 10547 10548 10547 10547 10546 10544 10543 10541 10539 10537 10535 10534 10531 10530 10528 10525 10523 10521 10518 10516 10513 10510 10507 10504 10501 10498 10496 10494 10491 10488 10485 10483 10480 10476 10472 10468
10427 10429 10431 10430 10431 10432 10433 10434 10437 10442 10447 10456 10468 10477 10478 10477 10480 10480 10479 10492 10504 10501 10501 10510 10519 10526 10525 10517 10512 10512 10512 10512 10521 10536 10538 10529 10524 10523 10525 10529 10533 10535 10538 10538 10537 10537 10536 10534 10535 10535 10534 10535 10534 10534 10534 10532 10531 10530 10528 10526 10524 10522 10521 10519 10517 10515 10513 10510 10508 10505 10502 10500 10496 10493 10490 10488 10485 10483 10480 10477 10474 10472 10469 10466 10462 10458
10413 10413 10416 10416 10414 10418 10419 10418 10421 10423 10431 10451 10468 10472 10466 10464 10465 10460 10458 10473 10494 10500 10499 10501 10506 10510 10508 10500 10496 10495 10491 10493 10510 10528 10526 10512 10507 10511 10515 10521 10525 10526 10526 10526 10526 10526 10525 10524 10524 10523 10522 10522 10521 10520 10520 10519 10519 10518 10516 10515 10513 10511 10510 10508 10506 10504 10502 10500 10497 10494 10491 10489 10486 10483 10480 10477 10475 10472 10469 10466 10463 10460 10458 10455 10451 10446
10400 10399 10402 10400 10397 10401 10402 10401 10403 10408 10422 10449 10464 10461 10453 10451 10452 10445 10438 10455 10486 10495 10487 10485 10490 10492 10490 10485 10481 10477 10474 10481 10501 10514 10506 10495 10496 10502 10506 10511 10515 10514 10514 10514 10513 10514 10513 10512 10512 10510 10510 10509 10508 10507 10507 10506 10505 10505 10504 10503 10502 10500 10499 10497 10495 10493 10491 10488 10486 10483 10480 10477 10475 10472 10469 10466 10464 10461 10457 10455 10451 10448 10446 10443 10439 10435
10388 10389 10390 10386 10385 10390 10391 10389 10390 10396 10414 10440 10451 10446 10440 10438 10435 10426 10423 10447 10478 10480 10469 10471 10474 10470 10469 10468 10464 10462 10465 10473 10486 10492 10489 10488 10492 10494 10494 10498 10499 10500 10501 10500 10499 10500 10500 10499 10499 10498 10497 10496 10495 10495 10494 10493 10492 10491 10491 10490 10489 10488 10487 10485 10483 10481 10479 10476 10474 10471 10468 10466 10463 10461 10458 10454 10452 10448 10445 10442 10439 10436 10433 10430 10427 10423
10376 10378 10378 10376 10378 10380 10378 10377 10379 10385 10404 10429 10436 10431 10428 10422 10413 10409 10421 10446 10460 10455 10453 10457 10452 10447 10450 10451 10449 10453 10459 10462 10468 10477 10479 10480 10482 10483 10484 10485 10484 10485 10486 10486 10485 10486 10486 10486 10486 10486 10485 10484 10483 10482 10481 10480 10479 10478 10477 10477 10476 10475 10474 10472 10470 10469 10466 10464 10462 10459 10456 10454 10451 10448 10445 10442 10439 10436 10432 10429 10426 10423 10420 10416 10413 10409
10365 10365 10365 10367 10371 10373 10372 10369 10366 10371 10393 10419 10426 10419 10412 10404 10401 10410 10425 10431 10429 10428 10435 10438 10434 10433 10437 10437 10437 10443 10449 10451 10456 10463 10465 10465 10467 10470 10471 10471 10471 10471 10471 10471 10471 10471 10472 10472 10473 10472 10472 10471 10470 10470 10469 10468 10467 10466 10465 10464 10463 10462 10461 10459 10457 10455 10453 10451 10448 10445 10443 10440 10437 10434 10431 10428 10425 10422 10419 10416 10412 10409 10406 10403 10399 10395
10356 10354 10353 10357 10362 10364 10362 10356 10352 10362 10390 10416 10415 10400 10390 10390 10397 10407 10410 10407 10408 10413 10418 10421 10423 10424 10424 10425 10427 10429 10434 10439 10443 10446 10449 10451 10453 10456 10457 10457 10458 10457 10457 10458 10458 10458 10458 10458 10458 10458 10458 10458 10457 10456 10455 10454 10454 10453 10452 10452 10451 10449 10448 10446 10444 10442 10439 10437 10434 10432 10429 10426 10423 10420 10417 10414 10411 10408 10405 10402 10398 10395 10391 10388 10384 10380
10342 10344 10344 10347 10348 10346 10343 10345 10354 10369 10388 10397 10391 10378 10373 10380 10388 10390 10388 10392 10399 10403 10404 10407 10410 10409 10409 10412 10414 10414 10419 10424 10426 10428 10433 10435 10438 10441 10442 10442 10443 10444 10444 10445 10444 10444 10445 10444 10444 10444 10444 10444 10443 10442 10442 10441 10441 10440 10440 10439 10438 10436 10435 10433 10430 10428 10425 10422 10420 10417 10414 10412 10409 10406 10403 10400 10397 10394 10391 10387 10384 10381 10376 10373 10368 10364
10324 10333 10334 10333 10331 10330 10332 10341 10354 10363 10366 10367 10369 10369 10366 10369 10375 10376 10376 10381 10387 10389 10392 10394 10394 10395 10397 10398 10400 10402 10406 10408 10409 10411 10414 10417 10421 10424 10425 10427 10428 10428 10429 10430 10429 10430 10430 10429 10429 10429 10428 10428 10428 10428 10428 10427 10427 10427 10427 10426 10424 10422 10420 10418 10415 10413 10410 10407 10405 10402 10400 10397 10395 10391 10388 10386 10383 10380 10377 10373 10370 10366 10361 10357 10353 10348
10309 10317 10319 10318 10317 10319 10326 10335 10342 10344 10346 10350 10356 10358 10357 10359 10365 10368 10368 10370 10373 10376 10379 10380 10381 10383 10384 10385 10388 10390 10391 10393 10395 10396 10397 10399 10402 10405 10408 10410 10411 10411 10412 10413 10413 10414 10414 10414 10413 10412 10412 10412 10412 10412 10413 10413 10412 10412 10411 10410 10408 10406 10403 10401 10399 10397 10394 10392 10389 10387 10384 10382 10379 10377 10374 10371 10368 10365 10362 10358 10355 10351 10346 10342 10338 10333
10297 10299 10300 10304 10306 10308 10315 10325 10332 10332 10332 10336 10341 10345 10347 10349 10354 10358 10361 10362 10363 10364 10365 10367 10370 10372 10373 10374 10377 10378 10379 10381 10382 10382 10384 10385 10386 10388 10390 10391 10393 10394 10396 10396 10397 10397 10397 10397 10396 10396 10395 10394 10394 10394 10395 10395 10395 10395 10394 10392 10391 10389 10386 10385 10382 10380 10378 10375 10373 10371 10368 10366 10364 10361 10359 10356 10353 10350 10347 10343 10339 10336 10331 10327 10323 10318
10284 10282 10284 10289 10293 10297 10303 10314 10322 10322 10321 10323 10328 10333 10338 10339 10341 10346 10350 10351 10352 10353 10353 10355 10357 10359 10361 10363 10365 10367 10368 10369 10370 10371 10373 10374 10374 10374 10374 10374 10376 10377 10378 10378 10379 10379 10378 10378 10379 10379 10379 10378 10378 10378 10377 10378 10378 10377 10376 10375 10373 10372 10370 10368 10366 10364 10362 10359 10357 10355 10353 10351 10348 10346 10343 10341 10338 10335 10331 10327 10324 10320 10315 10311 10307 10302
10269 10270 10273 10276 10278 10284 10291 10301 10307 10309 10311 10313 10314 10318 10324 10328 10330 10332 10333 10335 10339 10340 10341 10343 10345 10347 10349 10351 10353 10356 10357 10357 10359 10360 10361 10362 10363 10362 10362 10362 10362 10362 10362 10363 10363 10362 10362 10362 10362 10362 10363 10363 10362 10362 10362 10362 10361 10360 10359 10358 10356 10355 10354 10352 10350 10348 10346 10344 10342 10340 10338 10335 10333 10330 10327 10324 10321 10318 10314 10311 10307 10303 10299 10294 10290 10286
10256 10258 10262 10262 10262 10268 10277 10285 10288 10290 10294 10299 10300 10303 10308 10312 10315 10317 10318 10321 10325 10328 10329 10332 10333 10335 10337 10338 10340 10342 10344 10346 10347 10348 10349 10349 10349 10348 10349 10349 10349 10349 10349 10349 10348 10348 10349 10348 10348 10348 10348 10348 10347 10347 10347 10346 10345 10344 10343 10342 10340 10339 10337 10335 10333 10332 10330 10328 10327 10324 10323 10320 10317 10315 10312 10308 10305 10301 10298 10294 10290 10287 10283 10279 10275 10271
10244 10245 10246 10244 10245 10252 10261 10266 10268 10271 10278 10285 10287 10288 10292 10296 10301 10304 10306 10309 10312 10314 10315 10318 10320 10323 10325 10326 10327 10329 10331 10333 10335 10336 10335 10335 10333 10333 10334 10334 10334 10336 10336 10336 10335 10335 10334 10334 10333 10333 10333 10333 10333 10332 10331 10331 10330 10329 10327 10326 10325 10323 10321 10320 10318 10316 10315 10313 10311 10309 10307 10304 10301 10299 10295 10291 10288 10285 10281 10278 10274 10271 10267 10263 10259 10255